Seward, AK

4:46 AM AKDT on October 17, 2017 (GMT -0800)
Seward

Weather History for PAWD - September, 2012

Change the Weather History Date:

Monday, September 24, 2012

  Actual Average Record
Temperature  
Mean Temperature 47 °F -  
Max Temperature 51 °F 52 °F 63 °F (1951)
Min Temperature 44 °F 40 °F 30 °F (1956)
Degree Days  
Heating Degree Days 18    
Moisture  
Dew Point 45 °F    
Average Humidity 93    
Maximum Humidity 100    
Minimum Humidity 68    
Precipitation  
Precipitation 0.16 in - - ()
Sea Level Pressure  
Sea Level Pressure 29.87 in    
Wind  
Wind Speed 1 mph (South)    
Max Wind Speed 18 mph    
Max Gust Speed 29 mph    
Visibility 5 miles    
Events Fog , Rain    
Averages and records for this station are not official NWS values.
T = Trace of Precipitation, MM = Missing Value Source: NWS Daily Summary

Daily Weather History Graph

Daily Weather History Graph

Search for Another Location

Airport or City:

Trip Planner

Search our weather history database for the weather conditions in past years. The results will help you decide how hot, cold, wet, or windy it might be!

Date:

Astronomy

Sep. 24, 2012 Rise Set
Actual Time 7:48 AM AKDT 7:49 PM AKDT
Civil Twilight 7:06 AM AKDT 8:30 PM AKDT
Nautical Twilight 6:16 AM AKDT 9:20 PM AKDT
Astronomical Twilight 5:22 AM AKDT 10:13 PM AKDT
Moon 5:46 PM AKDT (9/24) 12:58 AM AKDT (9/24)
Length of Visible Light 13h 24m
Length of Day
12h 00m
Waxing Gibbous, 72% of the Moon is Illuminated
Sep 24
Waxing Gibbous
Sep 29
Full
Oct 7
Last Quarter
Oct 15
New
Oct 21
First Quarter

Hourly Weather History & Observations

Time (AKDT) Temp. Dew Point Humidity Pressure Visibility Wind Dir Wind Speed Gust Speed Precip Events Conditions
12:03 AM 44.6 °F 44.6 °F 100% 29.77 in 1.0 mi Calm Calm - N/A   Overcast
12:07 AM 44.6 °F 44.6 °F 100% 29.77 in 0.8 mi Calm Calm - N/A   Overcast
12:37 AM 44.6 °F 44.6 °F 100% 29.78 in 1.0 mi Calm Calm - N/A   Overcast
12:49 AM 44.6 °F 44.6 °F 100% 29.78 in 1.2 mi Calm Calm - N/A   Overcast
12:50 AM 45.0 °F 44.1 °F 97% 29.79 in 1.2 mi Calm Calm - N/A   Overcast
12:55 AM 46.4 °F 44.6 °F 93% 29.79 in 1.0 mi Calm Calm - N/A   Overcast
1:05 AM 44.6 °F 44.6 °F 100% 29.79 in 0.5 mi Calm Calm - N/A Fog Fog
1:30 AM 46.4 °F 46.4 °F 100% 29.80 in 1.2 mi Calm Calm - N/A   Overcast
1:36 AM 46.4 °F 44.6 °F 93% 29.80 in 3.0 mi Calm Calm - N/A   Overcast
1:44 AM 44.6 °F 44.6 °F 100% 29.80 in 2.0 mi Calm Calm - N/A   Overcast
1:48 AM 44.6 °F 44.6 °F 100% 29.80 in 1.0 mi Calm Calm - N/A   Overcast
1:53 AM 44.1 °F 44.1 °F 100% 29.81 in 0.8 mi Calm Calm - N/A   Overcast
2:18 AM 44.6 °F 44.6 °F 100% 29.81 in 0.8 mi Calm Calm - N/A   Overcast
2:33 AM 46.4 °F 46.4 °F 100% 29.81 in 1.2 mi Calm Calm - N/A   Overcast
2:38 AM 44.6 °F 44.6 °F 100% 29.81 in 1.0 mi Calm Calm - N/A   Overcast
2:44 AM 44.6 °F 44.6 °F 100% 29.82 in 0.8 mi Calm Calm - N/A   Overcast
2:53 AM 45.0 °F 44.1 °F 97% 29.82 in 0.5 mi Calm Calm - N/A Fog Fog
3:11 AM 44.6 °F 44.6 °F 100% 29.82 in 0.8 mi Calm Calm - N/A   Overcast
3:21 AM 46.4 °F 44.6 °F 93% 29.82 in 1.2 mi Calm Calm - N/A   Overcast
3:26 AM 46.4 °F 44.6 °F 93% 29.83 in 4.0 mi Calm Calm - N/A   Overcast
3:38 AM 44.6 °F 44.6 °F 100% 29.83 in 4.0 mi Calm Calm - N/A   Overcast
3:42 AM 44.6 °F 44.6 °F 100% 29.83 in 1.8 mi Calm Calm - N/A   Overcast
3:50 AM 44.6 °F 44.6 °F 100% 29.83 in 0.8 mi Calm Calm - N/A   Overcast
3:53 AM 45.0 °F 45.0 °F 100% 29.83 in 0.8 mi Calm Calm - N/A   Overcast
4:11 AM 46.4 °F 44.6 °F 93% 29.84 in 1.0 mi Calm Calm - N/A   Overcast
4:28 AM 44.6 °F 44.6 °F 100% 29.84 in 2.0 mi Calm Calm - N/A   Overcast
4:36 AM 46.4 °F 44.6 °F 93% 29.84 in 7.0 mi Calm Calm - N/A   Overcast
4:48 AM 46.4 °F 44.6 °F 93% 29.84 in 10.0 mi Calm Calm - N/A   Overcast
4:53 AM 46.0 °F 45.0 °F 96% 29.85 in 10.0 mi Calm Calm - N/A   Overcast
5:53 AM 46.0 °F 45.0 °F 96% 29.85 in 10.0 mi Calm Calm - N/A   Overcast
6:16 AM 46.4 °F 44.6 °F 93% 29.86 in 10.0 mi Calm Calm - N/A   Overcast
6:53 AM 46.0 °F 45.0 °F 96% 29.87 in 10.0 mi Calm Calm - N/A   Overcast
7:33 AM 46.4 °F 44.6 °F 93% 29.88 in 1.8 mi Calm Calm - N/A   Overcast
7:53 AM 45.0 °F 45.0 °F 100% 29.89 in 3.0 mi Calm Calm - N/A   Overcast
8:02 AM 46.4 °F 44.6 °F 93% 29.89 in 9.0 mi Calm Calm - N/A   Overcast
8:20 AM 44.6 °F 44.6 °F 100% 29.89 in 1.5 mi Calm Calm - 0.01 in Rain Light Rain
8:23 AM 46.4 °F 44.6 °F 93% 29.89 in 0.8 mi Calm Calm - 0.01 in Rain Light Rain
8:39 AM 44.6 °F 44.6 °F 100% 29.90 in 1.2 mi Calm Calm - 0.02 in Rain Light Rain
8:53 AM 46.0 °F 45.0 °F 96% 29.91 in 2.0 mi Calm Calm - 0.03 in Rain Light Rain
9:05 AM 46.4 °F 46.4 °F 100% 29.90 in 4.0 mi Calm Calm - 0.01 in Rain Light Rain
9:53 AM 46.9 °F 46.0 °F 97% 29.92 in 6.0 mi Calm Calm - 0.03 in Rain Light Rain
10:46 AM 48.2 °F 46.4 °F 93% 29.93 in 10.0 mi Calm Calm - 0.00 in Rain Light Rain
10:53 AM 48.0 °F 46.9 °F 96% 29.93 in 10.0 mi NNE 3.5 mph - 0.01 in Rain Light Rain
11:53 AM 50.0 °F 46.9 °F 89% 29.94 in 10.0 mi Calm Calm - 0.02 in Rain Light Rain
12:05 PM 50.0 °F 46.4 °F 87% 29.93 in 10.0 mi Calm Calm - 0.00 in   Overcast
12:53 PM 50.0 °F 48.0 °F 93% 29.94 in 10.0 mi Calm Calm - 0.00 in   Overcast
1:10 PM 50.0 °F 46.4 °F 87% 29.93 in 10.0 mi Calm Calm - N/A   Overcast
1:24 PM 50.0 °F 46.4 °F 87% 29.93 in 6.0 mi Calm Calm - 0.01 in Rain Light Rain
1:33 PM 50.0 °F 46.4 °F 87% 29.93 in 8.0 mi SE 4.6 mph - 0.01 in Rain Light Rain
1:40 PM 48.2 °F 46.4 °F 93% 29.93 in 10.0 mi SE 4.6 mph - 0.01 in   Overcast
1:53 PM 48.9 °F 46.9 °F 93% 29.94 in 9.0 mi SSE 3.5 mph - 0.01 in Rain Light Rain
2:03 PM 48.2 °F 46.4 °F 93% 29.93 in 10.0 mi Calm Calm - 0.00 in Rain Light Rain
2:22 PM 48.2 °F 46.4 °F 93% 29.94 in 10.0 mi SSW 3.5 mph - 0.00 in   Overcast
2:53 PM 48.9 °F 48.0 °F 97% 29.93 in 4.0 mi Calm Calm - 0.02 in Rain Light Rain
3:01 PM 48.2 °F 46.4 °F 93% 29.93 in 9.0 mi Calm Calm - 0.00 in Rain Light Rain
3:11 PM 48.2 °F 46.4 °F 93% 29.92 in 3.0 mi SSE 4.6 mph - 0.00 in Rain Light Rain
3:40 PM 48.2 °F 46.4 °F 93% 29.93 in 4.0 mi South 9.2 mph - 0.02 in Rain Light Rain
3:51 PM 48.2 °F 42.8 °F 82% 29.93 in 9.0 mi South 13.8 mph 28.8 mph 0.02 in Rain Light Rain
3:53 PM 48.0 °F 42.1 °F 80% 29.94 in 10.0 mi South 18.4 mph 28.8 mph 0.02 in Rain Light Rain
4:53 PM 48.9 °F 41.0 °F 74% 29.95 in 10.0 mi SSW 9.2 mph - 0.00 in   Overcast
5:53 PM 48.0 °F 42.1 °F 80% 29.94 in 10.0 mi SSW 10.4 mph - 0.01 in   Overcast
6:53 PM 48.9 °F 39.9 °F 71% 29.93 in 10.0 mi SSW 15.0 mph - N/A   Overcast
7:53 PM 48.0 °F 37.9 °F 68% 29.91 in 10.0 mi SSW 17.3 mph 21.9 mph N/A   Overcast
8:53 PM 46.9 °F 41.0 °F 80% 29.92 in 10.0 mi SSW 18.4 mph 24.2 mph 0.00 in Rain Light Rain
9:53 PM 46.9 °F 41.0 °F 80% 29.90 in 10.0 mi SSW 17.3 mph 27.6 mph 0.01 in Rain Light Rain
10:53 PM 48.9 °F 39.0 °F 69% 29.88 in 10.0 mi SSW 10.4 mph 17.3 mph 0.00 in   Overcast
11:53 PM 48.9 °F 39.0 °F 69% 29.87 in 10.0 mi South 9.2 mph 21.9 mph 0.00 in   Overcast